When you browse on this site, cookies collect data to enhance your experience and personalize the content and advertising you see.
Visit our Privacy Policy to learn more. By continuing to use the site, you agree to this use of cookies and data.
  • en France
  • Liste des pays
  • À 7 jours
  • Température de l'eau
  • Carte météo
  • Widgets météo
  • user-avatar
    Se connecter

    Météo par heure à Orléans

    Ce jour, 14 Octobre, Lundi

    Heure Température Précipitation Vent Pression Humidité
    00:00 +15°C° 0 mm 0 m/s 749 mmHg 88%
    01:00 +16°C° 0 mm 1 m/s 748 mmHg 89%
    02:00 +16°C° 0 mm 2 m/s 748 mmHg 90%
    03:00 +15°C° 0 mm 2 m/s 747 mmHg 91%
    04:00 +15°C° 0 mm 2 m/s 747 mmHg 88%
    05:00 +14°C° 0 mm 3 m/s 746 mmHg 85%
    06:00 +14°C° 0 mm 3 m/s 746 mmHg 82%
    07:00 +17°C° 0 mm 4 m/s 746 mmHg 75%
    08:00 +19°C° 0 mm 4 m/s 746 mmHg 67%
    09:00 +21°C° 0 mm 5 m/s 745 mmHg 59%
    10:00 +22°C° 0 mm 5 m/s 745 mmHg 55%
    11:00 +23°C° 0 mm 5 m/s 745 mmHg 51%
    12:00 +26°C° 0 mm 4 m/s 744 mmHg 47%
    13:00 +25°C° 0.1 mm 4 m/s 744 mmHg 49%
    14:00 +25°C° 0.1 mm 4 m/s 744 mmHg 51%
    15:00 +25°C° 0.1 mm 3 m/s 743 mmHg 53%
    16:00 +22°C° 0.4 mm 4 m/s 744 mmHg 60%
    17:00 +20°C° 0.4 mm 5 m/s 744 mmHg 67%
    18:00 +17°C° 0.4 mm 6 m/s 745 mmHg 74%
    19:00 +16°C° 0.2 mm 5 m/s 745 mmHg 78%
    20:00 +16°C° 0.2 mm 5 m/s 745 mmHg 81%
    21:00 +17°C° 0.2 mm 4 m/s 745 mmHg 85%
    22:00 +15°C° 0.3 mm 4 m/s 745 mmHg 87%
    23:00 +16°C° 0.3 mm 3 m/s 745 mmHg 88%

    Demain, 15 Octobre, Mardi

    Heure Température Précipitation Vent Pression Humidité
    00:00 +16°C° 0.3 mm 2 m/s 744 mmHg 90%
    01:00 +15°C° 2 mm 2 m/s 744 mmHg 91%
    02:00 +15°C° 2 mm 2 m/s 744 mmHg 92%
    03:00 +15°C° 2 mm 2 m/s 743 mmHg 94%
    04:00 +15°C° 0.9 mm 2 m/s 743 mmHg 92%
    05:00 +14°C° 0.9 mm 2 m/s 743 mmHg 91%
    06:00 +14°C° 0.9 mm 2 m/s 743 mmHg 90%
    07:00 +13°C° 1.6 mm 3 m/s 744 mmHg 90%
    08:00 +13°C° 1.6 mm 3 m/s 744 mmHg 91%
    09:00 +13°C° 1.6 mm 3 m/s 745 mmHg 91%
    10:00 +13°C° 0.6 mm 4 m/s 745 mmHg 86%
    11:00 +13°C° 0.6 mm 4 m/s 746 mmHg 81%
    12:00 +13°C° 0.6 mm 4 m/s 746 mmHg 76%
    13:00 +14°C° 0.2 mm 4 m/s 746 mmHg 71%
    14:00 +14°C° 0.2 mm 5 m/s 746 mmHg 66%
    15:00 +15°C° 0.2 mm 5 m/s 746 mmHg 61%
    16:00 +14°C° 0.2 mm 4 m/s 747 mmHg 65%
    17:00 +13°C° 0.2 mm 4 m/s 747 mmHg 70%
    18:00 +12°C° 0.2 mm 4 m/s 748 mmHg 74%
    19:00 +12°C° 0 mm 4 m/s 748 mmHg 76%
    20:00 +11°C° 0 mm 4 m/s 748 mmHg 77%
    21:00 +11°C° 0 mm 4 m/s 749 mmHg 79%
    22:00 +11°C° 0 mm 4 m/s 749 mmHg 83%
    23:00 +10°C° 0 mm 4 m/s 749 mmHg 87%

    Après-demain, 16 Octobre, Mercredi

    Heure Température Précipitation Vent Pression Humidité
    00:00 +10°C° 0 mm 4 m/s 749 mmHg 90%
    01:00 +11°C° 0.1 mm 4 m/s 749 mmHg 90%
    02:00 +10°C° 0.1 mm 5 m/s 749 mmHg 89%
    03:00 +12°C° 0.1 mm 5 m/s 749 mmHg 88%
    04:00 +12°C° 0.2 mm 5 m/s 748 mmHg 88%
    05:00 +12°C° 0.2 mm 5 m/s 748 mmHg 88%
    06:00 +11°C° 0.2 mm 6 m/s 748 mmHg 87%
    07:00 +11°C° 0 mm 6 m/s 748 mmHg 84%
    08:00 +13°C° 0 mm 6 m/s 748 mmHg 80%
    09:00 +13°C° 0 mm 6 m/s 748 mmHg 76%
    10:00 +14°C° 0 mm 6 m/s 748 mmHg 71%
    11:00 +14°C° 0 mm 6 m/s 748 mmHg 66%
    12:00 +15°C° 0 mm 5 m/s 748 mmHg 61%
    13:00 +15°C° 0.1 mm 5 m/s 748 mmHg 64%
    14:00 +15°C° 0.1 mm 5 m/s 747 mmHg 66%
    15:00 +15°C° 0.1 mm 5 m/s 747 mmHg 69%
    16:00 +14°C° 0.8 mm 5 m/s 747 mmHg 74%
    17:00 +13°C° 0.8 mm 5 m/s 747 mmHg 79%
    18:00 +12°C° 0.8 mm 5 m/s 747 mmHg 84%
    19:00 +12°C° 0.6 mm 5 m/s 747 mmHg 85%
    20:00 +12°C° 0.6 mm 4 m/s 747 mmHg 85%
    21:00 +12°C° 0.6 mm 4 m/s 747 mmHg 86%
    22:00 +12°C° 0.4 mm 4 m/s 747 mmHg 86%
    23:00 +12°C° 0.4 mm 4 m/s 747 mmHg 86%

    17 Octobre, Jeudi

    Heure Température Précipitation Vent Pression Humidité
    00:00 +12°C° 0.4 mm 3 m/s 747 mmHg 86%
    01:00 +13°C° 0 mm 4 m/s 747 mmHg 87%
    02:00 +13°C° 0 mm 5 m/s 748 mmHg 87%
    03:00 +13°C° 0 mm 6 m/s 748 mmHg 87%
    04:00 +11°C° 0 mm 6 m/s 748 mmHg 85%
    05:00 +12°C° 0 mm 5 m/s 749 mmHg 83%
    06:00 +11°C° 0 mm 4 m/s 749 mmHg 81%
    07:00 +12°C° 0 mm 4 m/s 750 mmHg 76%
    08:00 +12°C° 0 mm 4 m/s 750 mmHg 70%
    09:00 +13°C° 0 mm 3 m/s 751 mmHg 64%
    10:00 +13°C° 0 mm 3 m/s 751 mmHg 63%
    11:00 +14°C° 0 mm 3 m/s 751 mmHg 62%
    12:00 +16°C° 0 mm 3 m/s 751 mmHg 61%
    13:00 +16°C° 0 mm 3 m/s 751 mmHg 62%
    14:00 +16°C° 0 mm 3 m/s 751 mmHg 63%
    15:00 +17°C° 0 mm 3 m/s 750 mmHg 64%
    16:00 +16°C° 0.1 mm 3 m/s 751 mmHg 70%
    17:00 +14°C° 0.1 mm 3 m/s 751 mmHg 77%
    18:00 +13°C° 0.1 mm 3 m/s 751 mmHg 84%
    19:00 +14°C° 0.3 mm 2 m/s 751 mmHg 87%
    20:00 +13°C° 0.3 mm 2 m/s 751 mmHg 90%
    21:00 +13°C° 0.3 mm 2 m/s 752 mmHg 94%
    22:00 +13°C° 0 mm 2 m/s 751 mmHg 93%
    23:00 +13°C° 0 mm 2 m/s 751 mmHg 93%

    18 Octobre, Vendredi

    Heure Température Précipitation Vent Pression Humidité
    00:00 +13°C° 0 mm 2 m/s 751 mmHg 93%
    01:00 +12°C° 0 mm 2 m/s 751 mmHg 92%
    02:00 +10°C° 0 mm 2 m/s 752 mmHg 92%
    03:00 +10°C° 0 mm 2 m/s 752 mmHg 91%
    04:00 +9°C° 0 mm 2 m/s 752 mmHg 91%
    05:00 +9°C° 0 mm 2 m/s 752 mmHg 91%
    06:00 +8°C° 0 mm 2 m/s 752 mmHg 92%
    07:00 +10°C° 0 mm 2 m/s 752 mmHg 85%
    08:00 +12°C° 0 mm 2 m/s 752 mmHg 78%
    09:00 +13°C° 0 mm 3 m/s 753 mmHg 71%
    10:00 +14°C° 0 mm 3 m/s 752 mmHg 66%
    11:00 +15°C° 0 mm 4 m/s 752 mmHg 60%
    12:00 +17°C° 0 mm 4 m/s 752 mmHg 54%
    13:00 +17°C° 0 mm 4 m/s 752 mmHg 55%
    14:00 +17°C° 0 mm 4 m/s 751 mmHg 55%
    15:00 +17°C° 0 mm 4 m/s 751 mmHg 55%
    16:00 +15°C° 0 mm 4 m/s 751 mmHg 62%
    17:00 +14°C° 0 mm 3 m/s 751 mmHg 68%
    18:00 +13°C° 0 mm 3 m/s 751 mmHg 75%
    19:00 +13°C° 0 mm 3 m/s 750 mmHg 75%
    20:00 +13°C° 0 mm 3 m/s 750 mmHg 75%
    21:00 +14°C° 0 mm 2 m/s 750 mmHg 75%
    22:00 +14°C° 0 mm 2 m/s 750 mmHg 76%
    23:00 +13°C° 0 mm 2 m/s 750 mmHg 77%

    19 Octobre, Samedi

    Heure Température Précipitation Vent Pression Humidité
    00:00 +13°C° 0 mm 2 m/s 749 mmHg 77%
    01:00 +13°C° 0 mm 2 m/s 749 mmHg 79%
    02:00 +13°C° 0 mm 2 m/s 749 mmHg 81%
    03:00 +12°C° 0 mm 2 m/s 748 mmHg 82%
    04:00 +11°C° 0 mm 3 m/s 748 mmHg 83%
    05:00 +11°C° 0 mm 3 m/s 748 mmHg 83%
    06:00 +11°C° 0 mm 3 m/s 748 mmHg 84%
    07:00 +11°C° 0.2 mm 3 m/s 747 mmHg 83%
    08:00 +12°C° 0.2 mm 3 m/s 747 mmHg 83%
    09:00 +12°C° 0.2 mm 3 m/s 747 mmHg 82%
    10:00 +12°C° 1.6 mm 3 m/s 747 mmHg 84%
    11:00 +12°C° 1.6 mm 4 m/s 747 mmHg 85%
    12:00 +12°C° 1.6 mm 4 m/s 746 mmHg 87%
    13:00 +12°C° 0.4 mm 4 m/s 746 mmHg 86%
    14:00 +12°C° 0.4 mm 4 m/s 746 mmHg 86%
    15:00 +12°C° 0.4 mm 4 m/s 745 mmHg 85%
    16:00 +12°C° 0.1 mm 4 m/s 745 mmHg 86%
    17:00 +11°C° 0.1 mm 4 m/s 745 mmHg 87%
    18:00 +11°C° 0.1 mm 3 m/s 745 mmHg 88%
    19:00 +11°C° 0 mm 3 m/s 745 mmHg 88%
    20:00 +11°C° 0 mm 3 m/s 745 mmHg 87%
    21:00 +11°C° 0 mm 3 m/s 745 mmHg 86%
    22:00 +10°C° 0 mm 3 m/s 745 mmHg 87%
    23:00 +10°C° 0 mm 3 m/s 745 mmHg 88%
    Voir plus